2023/08/16 00:00:00, 0.7,21.7
2023/08/16 00:10:00, 0.8,22.0
2023/08/16 00:20:00, 0.8,21.7
2023/08/16 00:30:00, 0.7,22.2
2023/08/16 00:40:00, 0.7,21.6
2023/08/16 00:50:00, 0.8,21.6
2023/08/16 01:00:00, 0.8,21.7
2023/08/16 01:10:00, 0.8,21.7
2023/08/16 01:20:00, 0.8,21.4
2023/08/16 01:30:00, 0.8,21.7
2023/08/16 01:40:00, 0.7,21.5
2023/08/16 01:50:00, 0.7,21.6
2023/08/16 02:00:00, 0.7,21.5
2023/08/16 02:10:00, 0.7,21.6
2023/08/16 02:20:00, 0.7,21.5
2023/08/16 02:30:00, 0.7,21.7
2023/08/16 02:40:00, 0.8,21.4
2023/08/16 02:50:00, 0.8,21.9
2023/08/16 03:00:00, 0.8,21.6
2023/08/16 03:10:00, 0.8,21.8
2023/08/16 03:20:00, 0.7,21.9
2023/08/16 03:30:00, 0.7,21.6
2023/08/16 03:40:00, 0.8,21.8
2023/08/16 03:50:00, 0.8,21.9
2023/08/16 04:00:00, 0.8,21.9
2023/08/16 04:10:00, 0.8,22.0
2023/08/16 04:20:00, 0.8,21.8
2023/08/16 04:30:00, 0.8,22.0
2023/08/16 04:40:00, 0.8,21.9
2023/08/16 04:50:00, 0.8,22.0
2023/08/16 05:00:00, 0.8,21.7
2023/08/16 05:10:00, 0.8,21.9
2023/08/16 05:20:00, 0.8,22.0
2023/08/16 05:30:00, 0.8,22.0
2023/08/16 05:40:00, 0.8,21.9
2023/08/16 05:50:00, 0.8,22.0
2023/08/16 06:00:00, 0.8,22.1
2023/08/16 06:10:00, 0.8,22.2
2023/08/16 06:20:00, 0.6,22.3
2023/08/16 06:30:00, 0.6,22.8
2023/08/16 06:40:00, 0.6,23.0
2023/08/16 06:50:00, 0.8,23.7
2023/08/16 07:00:00, 0.7,25.1
2023/08/16 07:10:00, 0.5,25.0
2023/08/16 07:20:00,---,24.4
2023/08/16 07:30:00,---,24.5
2023/08/16 07:40:00,---,23.8
2023/08/16 07:50:00,---,24.4
2023/08/16 08:00:00,---,25.8
2023/08/16 08:10:00,---,27.6
2023/08/16 08:20:00,---,27.1
2023/08/16 08:30:00,---,25.9
2023/08/16 08:40:00,---,26.9
2023/08/16 08:50:00, 0.0,26.6
2023/08/16 09:00:00, 0.0,27.4
2023/08/16 09:10:00, 0.0,28.2
2023/08/16 09:20:00, 0.0,28.9
2023/08/16 09:30:00, 0.0,29.3
2023/08/16 09:40:00, 0.0,28.6
2023/08/16 09:50:00, 0.0,28.3
2023/08/16 10:00:00, 0.0,28.1
2023/08/16 10:10:00, 0.0,28.2
2023/08/16 10:20:00, 0.0,28.5
2023/08/16 10:30:00, 0.0,28.9
2023/08/16 10:40:00, 0.0,29.0
2023/08/16 10:50:00, 0.0,29.0
2023/08/16 11:00:00, 0.0,30.1
2023/08/16 11:10:00, 0.0,30.4
2023/08/16 11:20:00, 0.0,29.9
2023/08/16 11:30:00, 0.0,31.0
2023/08/16 11:40:00, 0.0,30.3
2023/08/16 11:50:00, 0.0,31.8
2023/08/16 12:00:00, 0.0,31.6
2023/08/16 12:10:00, 0.0,32.2
2023/08/16 12:20:00, 0.0,32.7
2023/08/16 12:30:00, 0.6,31.2
2023/08/16 12:40:00, 0.0,32.3
2023/08/16 12:50:00, 0.6,31.0
2023/08/16 13:00:00, 0.8,31.1
2023/08/16 13:10:00, 0.7,31.2
2023/08/16 13:20:00, 0.7,31.1
2023/08/16 13:30:00, 0.7,30.6
2023/08/16 13:40:00, 0.6,29.7
2023/08/16 13:50:00, 0.5,30.2
2023/08/16 14:00:00, 0.4,30.4
2023/08/16 14:10:00, 0.4,30.5
2023/08/16 14:20:00, 0.4,30.7
2023/08/16 14:30:00, 0.5,30.2
2023/08/16 14:40:00, 0.6,30.4
2023/08/16 14:50:00, 0.4,29.2
2023/08/16 15:00:00, 0.5,28.9
2023/08/16 15:10:00, 0.6,28.3
2023/08/16 15:20:00, 0.5,27.9
2023/08/16 15:30:00, 0.6,27.8
2023/08/16 15:40:00, 0.5,27.6
2023/08/16 15:50:00, 0.6,27.4
2023/08/16 16:00:00, 0.6,27.6
2023/08/16 16:10:00, 0.6,27.6
2023/08/16 16:20:00, 0.6,27.2
2023/08/16 16:30:00, 0.6,26.7
2023/08/16 16:40:00, 0.6,26.1
2023/08/16 16:50:00, 0.7,25.7
2023/08/16 17:00:00, 0.7,25.6
2023/08/16 17:10:00, 0.7,25.5
2023/08/16 17:20:00, 0.7,25.4
2023/08/16 17:30:00, 0.7,25.2
2023/08/16 17:40:00, 0.7,25.2
2023/08/16 17:50:00, 0.7,25.2
2023/08/16 18:00:00, 0.7,25.2
2023/08/16 18:10:00, 0.7,25.1
2023/08/16 18:20:00, 0.7,24.9
2023/08/16 18:30:00, 0.7,24.7
2023/08/16 18:40:00, 0.7,25.0
2023/08/16 18:50:00, 0.7,24.5
2023/08/16 19:00:00, 0.7,24.0
2023/08/16 19:10:00, 0.8,24.1
2023/08/16 19:20:00, 0.8,24.0
2023/08/16 19:30:00, 0.7,23.9
2023/08/16 19:40:00, 0.7,23.8
2023/08/16 19:50:00, 0.7,23.9
2023/08/16 20:00:00, 0.7,23.8
2023/08/16 20:10:00, 0.7,23.8
2023/08/16 20:20:00, 0.7,24.0
2023/08/16 20:30:00, 0.7,23.9
2023/08/16 20:40:00, 0.8,23.9
2023/08/16 20:50:00, 0.7,23.8
2023/08/16 21:00:00, 0.7,23.7
2023/08/16 21:10:00, 0.7,23.6
2023/08/16 21:20:00, 0.7,23.7
2023/08/16 21:30:00, 0.7,23.8
2023/08/16 21:40:00, 0.7,23.8
2023/08/16 21:50:00, 0.7,23.6
2023/08/16 22:00:00, 0.7,23.7
2023/08/16 22:10:00, 0.7,23.7
2023/08/16 22:20:00, 0.7,23.8
2023/08/16 22:30:00, 0.7,23.7
2023/08/16 22:40:00, 0.7,23.7
2023/08/16 22:50:00, 0.7,23.6
2023/08/16 23:00:00, 0.7,23.7
2023/08/16 23:10:00, 0.7,23.7
2023/08/16 23:20:00, 0.7,23.8
2023/08/16 23:30:00, 0.7,23.7
2023/08/16 23:40:00, 0.7,23.5
2023/08/16 23:50:00, 0.7,23.6
